Regional Weather Roundup
Issued by NWS

Home | Current Version | Previous Version | Graphics & Text | Print | Product List | Glossary On
Versions: 1 2 3 4 5 6 7 8 9 10 11 12 13 14 15 16 17 18 19 20 21 22 23 24 25 26 27 28 29 30 31 32 33 34 35 36 37 38 39 40 41 42 43 44 45 46 47 48 49 50
000
ASUS43 KLOT 151910
RWRIL

ILLINOIS REGIONAL WEATHER ROUNDUP
NATIONAL WEATHER SERVICE CHICAGO/ROMEOVILLE IL
200 PM CDT MON SEP 15 2014

NOTE: "FAIR" INDICATES FEW OR NO CLOUDS BELOW 12,000 FEET WITH NO
SIGNIFICANT WEATHER AND/OR OBSTRUCTIONS TO VISIBILITY.

* THESE STATIONS ARE NOT UNDER NWS QUALITY CONTROL. THEY ALSO MAY NOT
  REPORT WEATHER SUCH AS PRECIPITATION OR FOG.

ILZ001-002-007-009-015-016-024-152000-
NORTHWEST ILLINOIS

CITY           SKY/WX    TMP DP  RH WIND       PRES   REMARKS
MOLINE         PTSUNNY   66  53  63 N6        30.07F
STERLING*      CLOUDY    63  54  72 SE3       30.09S
SAVANNA*       LGT RAIN  62  53  73 N7        30.10R
$$

ILZ003-004-008-010-011-017-018-152000-
NORTH CENTRAL ILLINOIS

CITY           SKY/WX    TMP DP  RH WIND       PRES   REMARKS
ROCKFORD       CLOUDY    60  51  72 S8        30.11F
FREEPORT*      DRIZZLE   57  54  87 N5        30.13R
ROCHELLE*      CLOUDY    58  51  77 S5        30.09F
DE KALB*       CLOUDY    55  52  90 S6        30.10F
PERU*          RAIN      56  55  95 NE3       30.09S
$$

ILZ005-006-012>014-019>023-152000-
NORTHEAST ILLINOIS

CITY           SKY/WX    TMP DP  RH WIND       PRES   REMARKS
CHICAGO-OHARE  CLOUDY    62  50  64 S8        30.08F
CHICAGO-MIDWAY CLOUDY    60  51  72 SW8       30.08F
AURORA         CLOUDY    58  52  80 CALM      30.11R
LANSING*       LGT RAIN  56  52  86 S9        30.10F
JOLIET*        LGT RAIN  56  53  90 S3        30.11S
WAUKEGAN       CLOUDY    60  49  66 SW3       30.09S
DUPAGE AIRPORT CLOUDY    58  52  80 SW7       30.09F
KANKAKEE*      LGT RAIN  56  53  89 CALM      30.11F
WHEELING       CLOUDY    62  48  60 SW8       30.10F
MORRIS*        RAIN      56  56 100 SE3       30.09F
ROMEOVILLE*    DRIZZLE   56  55  94 S7        30.09F
NORTHERLY ISL    N/A     60  47  61 S10         N/A
$$

LMZ740>746-152000-
SOUTHERN LAKE MICHIGAN

STATION/POSITION SKY/WX   TEMP    WIND        PRES    VSBY  WAVE
                          AIR SEA DIR/SP/G                  HT/PER
                          (F)     (DEG/KT/KT) (MB)    (MI)  (FT/S)
SOUTHERN BUOY              61 65   CALM  /  2 1019.0F         1/ 3
WAUKEGAN HARBOR            61     170/  4/  5   N/A
HARRISON CRIB              60     200/ 12/ 14   N/A
BURNHAM HARBOR             60     190/  7/ 12   N/A
CALUMET HARBOR             58     200/  8/ 11 1017.6F
MICHIGAN CITY              59     180/ 11/ 17   N/A
MICHIGAN CITY 6N           60 64  200/ 10/ 14   N/A           1/ 2
ST. JOSEPH                 61 66  200/ 12/ 16   N/A           2/ 4
$$

ILZ025>027-034>036-040-047-049-050-058-095>099-152000-
WEST-CENTRAL ILLINOIS

CITY           SKY/WX    TMP DP  RH WIND       PRES   REMARKS
QUINCY         CLOUDY    62  60  93 NW6       30.06S FOG
GALESBURG*     CLOUDY    59  56  91 NW5       30.08R
MACOMB*        CLOUDY    59  58  97 W5        30.09R THUNDER
JACKSONVILLE*  CLOUDY    62  60  96 S3        30.06F FOG
PITTSFIELD*    DRIZZLE   63  60  91 S3        30.06F
$$

ILZ028>032-037-038-041>044-048-051>054-059>061-152000-
CENTRAL ILLINOIS

CITY           SKY/WX    TMP DP  RH WIND       PRES   REMARKS
PONTIAC        CLOUDY    59  57  94 SE3       30.08S
DECATUR        CLOUDY    58  58 100 S13       30.08R
PEORIA         CLOUDY    59  56  89 S5        30.06F FOG
LACON*         DRIZZLE   57  55  95 SE3       30.05F
LINCOLN*       CLOUDY    59  56  89 S7        30.04F THUNDER
SPRINGFIELD    RAIN      59  57  93 S7        30.06F VSB 1
TAYLORVILLE    LGT RAIN  55  55 100 SE5       30.06F
$$

ILZ033-039-045-046-055>057-062-063-152000-
EAST-CENTRAL ILLINOIS

CITY           SKY/WX    TMP DP  RH WIND       PRES   REMARKS
CHAMPAIGN      CLOUDY    57  57 100 VRB3      30.08R
DANVILLE*      CLOUDY    55  53  95 CALM      30.04F
RANTOUL*       CLOUDY    58  55  88 S5        30.09R
MATTOON        CLOUDY    57  54  89 SE12      30.05F
PARIS*         TSTM      56  56  97 SE13G18   30.05F
$$

ILZ079-100>102-152000-
SOUTHWEST ILLINOIS

CITY           SKY/WX    TMP DP  RH WIND       PRES   REMARKS
ALTON          CLOUDY    72  63  73 CALM      30.06S
BELLEVILLE     PTSUNNY   76  65  68 VRB6      30.04F
CAHOKIA*       CLOUDY    79  65  62 W5        30.04F HX  81
SPARTA*        PTSUNNY   74  62  66 S7        30.07F
$$

ILZ064>066-069>071-074>076-080>082-084>086-088>090-092>094-152000-
SOUTH-CENTRAL ILLINOIS

CITY           SKY/WX    TMP DP  RH WIND       PRES   REMARKS
CARBONDALE     CLOUDY    73  60  63 S8        30.09F
CAIRO*         CLOUDY    76  60  59 S8        30.11S
EFFINGHAM*     RAIN      60  56  87 E10       30.10F
MARION         PTSUNNY   73  59  60 S12       30.10F
MT. VERNON     MOSUNNY   73  59  60 S13       30.10F
CENTRALIA*     PTSUNNY   74  59  58 S9        30.08S
SALEM*         CLOUDY    74  63  68 S7        30.08F
METROPOLIS*    CLOUDY    75  60  58 S3        30.11S
$$

ILZ067-068-072-073-078-083-087-091-152000-
SOUTHEAST ILLINOIS

CITY           SKY/WX    TMP DP  RH WIND       PRES   REMARKS
LAWRENCEVILLE  CLOUDY    70  55  59 E6        30.13F
FLORA*         MOSUNNY   72  56  55 SE8       30.10F
FAIRFIELD*     PTSUNNY  N/A N/A N/A CALM      30.09F
HARRISBURG*    CLOUDY    74  57  55 SW6       30.12S
ROBINSON*      CLOUDY    67  57  70 N17       30.22R
CARMI*         CLOUDY    77  58  50 SW6       30.09F
$$

ABBREVIATIONS USED IN REMARKS
   TC - TEMPERATURE IN CELSIUS
  WCI - WIND CHILL INDEX
   HX - HEAT INDEX
  VSB - VISIBILITY
$$



USA.gov is the U.S. government's official web portal to all federal, state and local government web resources and services.